TimeEDT,TemperatureF,Dew PointF,Humidity,Sea Level PressureIn,VisibilityMPH,Wind Direction,Wind SpeedMPH,Gust SpeedMPH,PrecipitationIn,Events,Conditions,WindDirDegrees,DateUTC
12:42 AM,69.8,68.0,94,29.87,2.5,Calm,Calm,-,N/A,,Partly Cloudy,0,2013-09-03 04:42:00
12:51 AM,69.1,68.0,96,29.85,1.5,Calm,Calm,-,N/A,,Scattered Clouds,0,2013-09-03 04:51:00
1:51 AM,68.0,66.9,96,29.86,4.0,Calm,Calm,-,N/A,,Scattered Clouds,0,2013-09-03 05:51:00
1:58 AM,69.8,66.2,88,29.89,4.0,Calm,Calm,-,N/A,,Mostly Cloudy,0,2013-09-03 05:58:00
2:51 AM,68.0,66.9,96,29.85,1.8,Calm,Calm,-,N/A,,Overcast,0,2013-09-03 06:51:00
2:58 AM,68.0,66.2,94,29.87,1.8,Calm,Calm,-,N/A,,Overcast,0,2013-09-03 06:58:00
3:18 AM,68.0,66.2,94,29.88,0.2,Calm,Calm,-,N/A,Fog,Fog,0,2013-09-03 07:18:00
3:45 AM,68.0,66.2,94,29.88,1.0,Calm,Calm,-,N/A,,Mostly Cloudy,0,2013-09-03 07:45:00
3:46 AM,68.0,66.0,93,29.86,1.0,Calm,Calm,-,N/A,,Mostly Cloudy,0,2013-09-03 07:46:00
3:51 AM,68.0,66.2,94,29.88,2.0,Calm,Calm,-,N/A,,Mostly Cloudy,0,2013-09-03 07:51:00
3:54 AM,68.0,66.2,94,29.88,3.0,Calm,Calm,-,N/A,,Mostly Cloudy,0,2013-09-03 07:54:00
4:01 AM,66.2,66.2,100,29.88,5.0,Calm,Calm,-,N/A,,Mostly Cloudy,0,2013-09-03 08:01:00
4:51 AM,68.0,66.0,93,29.87,8.0,NNW,4.6,-,N/A,,Overcast,330,2013-09-03 08:51:00
5:51 AM,68.0,64.9,90,29.88,10.0,NNW,3.5,-,N/A,,Overcast,340,2013-09-03 09:51:00
6:48 AM,66.2,64.4,94,29.93,10.0,Variable,3.5,-,N/A,,Overcast,0,2013-09-03 10:48:00
6:51 AM,66.9,64.0,90,29.91,10.0,North,4.6,-,N/A,,Overcast,350,2013-09-03 10:51:00
7:51 AM,66.9,63.0,87,29.94,10.0,NNW,4.6,-,N/A,,Overcast,340,2013-09-03 11:51:00
8:51 AM,68.0,61.0,78,29.96,10.0,North,5.8,-,N/A,,Overcast,350,2013-09-03 12:51:00
8:53 AM,68.0,60.8,78,29.97,10.0,North,8.1,-,N/A,,Clear,360,2013-09-03 12:53:00
9:51 AM,71.1,61.0,70,29.96,10.0,Calm,Calm,-,N/A,,Clear,0,2013-09-03 13:51:00
10:51 AM,73.9,61.0,64,29.97,10.0,Variable,5.8,-,N/A,,Clear,0,2013-09-03 14:51:00
11:51 AM,75.9,62.1,62,29.98,10.0,North,6.9,-,N/A,,Clear,350,2013-09-03 15:51:00
12:51 PM,77.0,61.0,58,29.98,10.0,Variable,6.9,-,N/A,,Scattered Clouds,0,2013-09-03 16:51:00
1:51 PM,77.0,61.0,58,29.98,10.0,NNW,9.2,16.1,N/A,,Partly Cloudy,340,2013-09-03 17:51:00
2:51 PM,78.1,62.1,58,29.97,10.0,NNW,8.1,-,N/A,,Mostly Cloudy,330,2013-09-03 18:51:00
3:51 PM,79.0,61.0,54,29.96,10.0,NNW,4.6,-,N/A,,Partly Cloudy,340,2013-09-03 19:51:00
4:51 PM,79.0,60.1,52,29.96,10.0,NNW,5.8,-,N/A,,Scattered Clouds,330,2013-09-03 20:51:00
5:51 PM,75.0,59.0,57,29.97,10.0,NW,6.9,-,N/A,,Clear,320,2013-09-03 21:51:00
6:51 PM,75.0,59.0,57,29.97,10.0,North,4.6,-,N/A,,Clear,360,2013-09-03 22:51:00
7:51 PM,69.1,59.0,70,29.99,10.0,North,4.6,-,N/A,,Clear,10,2013-09-03 23:51:00
8:51 PM,66.9,57.0,70,30.01,10.0,Calm,Calm,-,N/A,,Clear,0,2013-09-04 00:51:00
9:51 PM,64.9,57.0,75,30.04,10.0,North,3.5,-,N/A,,Clear,360,2013-09-04 01:51:00
10:51 PM,63.0,55.9,78,30.05,10.0,NE,3.5,-,N/A,,Clear,40,2013-09-04 02:51:00
11:51 PM,62.1,55.0,78,30.06,10.0,Calm,Calm,-,N/A,,Clear,0,2013-09-04 03:51:00